Location: Spring Creek
(38.2870°N, 100.2160°W)
Time: 13:43:06
(UTC+00:00)

Cosmos 2297 Rocket - Pass Details

Date: 04 October 2021
Orbit: 841 x 842 km, 71.0° (Epoch: 27 October)

Event Time Altitude Azimuth Distance (km) Brightness Sun altitude
Rises 03:21:26 0° 332° (NNW) 3,402 6.0 -35.5°
Reaches altitude 10° 03:23:55 10° 328° (NNW) 2,464 5.2 -35.9°
Enters shadow 03:27:14 34° 311° (NW) 1,354 3.6 -36.5°
